Weather History for Dalaman, Turkey

Change the Weather History Date:

Thursday, October 27, 2011

  Actual Average Record
Temperature  
Mean Temperature 66 °F -  
Max Temperature 76 °F 68 °F 84 °F (2007)
Min Temperature 56 °F 49 °F 50 °F (2000)
Cooling Degree Days 1    
Growing Degree Days 16 (Base 50)    
Moisture  
Dew Point 44 °F    
Average Humidity 44    
Maximum Humidity 77    
Minimum Humidity 25    
Precipitation  
Precipitation 0.00 in - - ()
Sea Level Pressure  
Sea Level Pressure 29.96 in    
Wind  
Wind Speed 10 mph ()    
Max Wind Speed 16 mph    
Max Gust Speed -    
Visibility 6.2 miles    
Events      
Averages and records for this station are not official NWS values.
T = Trace of Precipitation, MM = Missing Value Source: Averaged Metar Reports

Daily Weather History Graph

Daily Weather History Graph

Search for Another Location

Airport:

Trip Planner

Search our weather history database for the weather conditions in past years. The results will help you decide how hot, cold, wet, or windy it might be!

Date:

Astronomy

Oct. 27, 2011 Rise Set
Actual Time 7:22 AM EEST 6:13 PM EEST
Civil Twilight 6:56 AM EEST 6:40 PM EEST
Nautical Twilight 6:26 AM EEST 7:10 PM EEST
Astronomical Twilight 5:56 AM EEST 7:40 PM EEST
Moon 7:58 AM EEST (10/27) 6:30 PM EEST (10/27)
Length of Visible Light 11h 44m
Length of Day
10h 51m
New Moon, 0% of the Moon is Illuminated
Oct 27
New Moon
Nov 2
First Quarter
Nov 10
Full
Nov 18
Last Quarter
Nov 25
New

Hourly Weather History & Observations

Time (EEST) Temp. Dew Point Humidity Pressure Visibility Wind Dir Wind Speed Gust Speed Precip Events Conditions
12:20 AM 64.4 °F 46.4 °F 52% 29.92 in - North 10.4 mph - N/A   Clear
12:50 AM 66.2 °F 44.6 °F 46% 29.92 in - North 13.8 mph - N/A   Clear
1:20 AM 62.6 °F 46.4 °F 55% 29.92 in - NNE 11.5 mph - N/A   Clear
1:50 AM 62.6 °F 46.4 °F 55% 29.92 in - North 6.9 mph - N/A   Clear
2:20 AM 62.6 °F 46.4 °F 55% 29.92 in - NE 5.8 mph - N/A   Clear
2:50 AM 64.4 °F 44.6 °F 49% 29.92 in - North 12.7 mph - N/A   Clear
3:00 AM 65 °F 43 °F 34% 29.93 in 6 mi North 12.7 mph - -  
3:20 AM 66.2 °F 42.8 °F 43% 29.92 in - North 13.8 mph - N/A   Clear
3:50 AM 64.4 °F 42.8 °F 45% 29.92 in - North 11.5 mph - N/A   Clear
4:20 AM 60.8 °F 44.6 °F 55% 29.92 in - NNE 8.1 mph - N/A   Clear
4:50 AM 59.0 °F 44.6 °F 59% 29.92 in - NNE 6.9 mph - N/A   Clear
5:20 AM 59.0 °F 44.6 °F 59% 29.92 in - NNE 6.9 mph - N/A   Clear
5:50 AM 59.0 °F 44.6 °F 59% 29.92 in - NNE 6.9 mph - N/A   Clear
6:20 AM 62.6 °F 41.0 °F 45% 29.92 in - North 13.8 mph - N/A   Clear
6:50 AM 62.6 °F 39.2 °F 42% 29.95 in - North 13.8 mph - N/A   Clear
7:20 AM 62.6 °F 39.2 °F 42% 29.95 in - North 13.8 mph - N/A   Clear
7:50 AM 62.6 °F 39.2 °F 42% 29.95 in - North 16.1 mph - N/A   Clear
8:20 AM 62.6 °F 39.2 °F 42% 29.98 in - North 15.0 mph - N/A   Clear
8:50 AM 64.4 °F 39.2 °F 40% 29.98 in - North 15.0 mph - N/A   Clear
9:00 AM 65 °F 39 °F 27% 29.98 in 6 mi North 15.0 mph - -  
9:20 AM 66.2 °F 39.2 °F 37% 29.98 in - North 16.1 mph - N/A   Clear
9:50 AM 68.0 °F 39.2 °F 35% 29.98 in - North 16.1 mph - N/A   Clear
10:20 AM 69.8 °F 39.2 °F 33% 29.98 in - North 16.1 mph - N/A   Clear
10:50 AM 69.8 °F 39.2 °F 33% 29.98 in - North 16.1 mph - N/A   Clear
11:20 AM 71.6 °F 39.2 °F 31% 29.98 in - North 12.7 mph - N/A   Clear
11:50 AM 73.4 °F 41.0 °F 31% 29.98 in - North 12.7 mph - N/A   Clear
12:20 PM 73.4 °F 41.0 °F 31% 29.98 in - NNW 8.1 mph - N/A   Clear
12:50 PM 73.4 °F 41.0 °F 31% 29.98 in 6.2 mi NW 6.9 mph - N/A   Scattered Clouds
1:20 PM 75.2 °F 37.4 °F 25% 29.98 in 6.2 mi NNW 6.9 mph - N/A   Scattered Clouds
1:50 PM 75.2 °F 37.4 °F 25% 29.95 in 6.2 mi NW 4.6 mph - N/A   Scattered Clouds
2:20 PM 77.0 °F 39.2 °F 26% 29.95 in 6.2 mi WNW 3.5 mph - N/A   Mostly Cloudy
2:50 PM 75.2 °F 50.0 °F 41% 29.95 in 6.2 mi WSW 11.5 mph - N/A   Scattered Clouds
3:00 PM 75 °F 50 °F 30% 29.97 in 6 mi WSW 11.5 mph - -   Scattered Clouds
3:20 PM 75.2 °F 53.6 °F 47% 29.95 in 6.2 mi WSW 15.0 mph - N/A   Scattered Clouds
3:50 PM 75.2 °F 53.6 °F 47% 29.95 in 6.2 mi WSW 13.8 mph - N/A   Scattered Clouds
4:20 PM 73.4 °F 53.6 °F 50% 29.98 in 6.2 mi WSW 12.7 mph - N/A   Scattered Clouds
4:50 PM 73.4 °F 55.4 °F 53% 29.98 in 6.2 mi WSW 11.5 mph - N/A   Mostly Cloudy
5:20 PM 73.4 °F 55.4 °F 53% 29.98 in 6.2 mi WSW 10.4 mph - N/A   Mostly Cloudy
5:50 PM 71.6 °F 55.4 °F 57% 29.98 in 6.2 mi WSW 9.2 mph - N/A   Mostly Cloudy
6:20 PM 71.6 °F 55.4 °F 57% 29.98 in 6.2 mi WSW 8.1 mph - N/A   Scattered Clouds
6:50 PM 69.8 °F 55.4 °F 60% 29.98 in 6.2 mi WNW 3.5 mph - N/A   Scattered Clouds
7:20 PM 64.4 °F 57.2 °F 77% 29.98 in 6.2 mi ENE 4.6 mph - N/A   Scattered Clouds
7:50 PM 64.4 °F 55.4 °F 73% 29.98 in - NE 4.6 mph - N/A   Clear
8:20 PM 62.6 °F 55.4 °F 77% 29.98 in - NE 3.5 mph - N/A   Clear
8:50 PM 62.6 °F 44.6 °F 52% 29.98 in - NNE 9.2 mph - N/A   Clear
9:00 PM 62 °F 48 °F 49% 30.00 in 6 mi NNE 9.2 mph - -   Partly Cloudy
9:20 PM 66.2 °F 33.8 °F 30% 29.98 in - North 11.5 mph - N/A   Clear
9:50 PM 62.6 °F 35.6 °F 37% 30.01 in - North 10.4 mph - N/A   Clear
10:20 PM 64.4 °F 33.8 °F 32% 30.01 in - North 9.2 mph - N/A   Clear
10:50 PM 64.4 °F 32.0 °F 30% 30.01 in - NNW 11.5 mph - N/A   Clear
11:20 PM 62.6 °F 35.6 °F 37% 30.01 in - North 10.4 mph - N/A   Clear
11:50 PM 62.6 °F 30.2 °F 30% 30.01 in - NNW 6.9 mph - N/A   Clear